TimeAEST,TemperatureF,Dew PointF,Humidity,Sea Level PressureIn,VisibilityMPH,Wind Direction,Wind SpeedMPH,Gust SpeedMPH,PrecipitationIn,Events,Conditions,WindDirDegrees,DateUTC
12:00 AM,80,69,63,29.91,,South,8.1,,,,,180,2013-02-05 14:00:00
12:00 AM,80.6,69.8,70,29.89,6.2,South,8.1,-,N/A,,Scattered Clouds,180,2013-02-05 14:00:00
12:30 AM,80.6,69.8,70,29.89,6.2,South,8.1,-,N/A,,Scattered Clouds,190,2013-02-05 14:30:00
1:00 AM,80,69,62,29.89,,South,8.1,,,,,180,2013-02-05 15:00:00
1:00 AM,80.6,69.8,70,29.89,6.2,South,8.1,-,N/A,,Scattered Clouds,180,2013-02-05 15:00:00
1:30 AM,80.6,68.0,65,29.86,6.2,South,6.9,-,N/A,,Scattered Clouds,180,2013-02-05 15:30:00
2:00 AM,80.6,68.0,65,29.86,6.2,South,6.9,-,N/A,Rain,Light Rain Showers,170,2013-02-05 16:00:00
2:35 AM,78.8,71.6,78,29.86,3.1,South,9.2,-,N/A,Rain,Light Rain Showers,170,2013-02-05 16:35:00
2:50 AM,77.0,71.6,83,29.86,6.2,SSE,8.1,-,N/A,,Scattered Clouds,160,2013-02-05 16:50:00
3:00 AM,76,71,81,29.85,,SSE,9.2,,,,,160,2013-02-05 17:00:00
3:00 AM,77.0,71.6,83,29.83,6.2,SSE,9.2,-,N/A,,Scattered Clouds,160,2013-02-05 17:00:00
3:30 AM,77.0,71.6,83,29.83,5.0,South,8.1,-,N/A,,Mostly Cloudy,170,2013-02-05 17:30:00
4:00 AM,75,72,88,29.86,,SSE,8.1,,,,,160,2013-02-05 18:00:00
4:00 AM,75.2,71.6,89,29.86,6.2,SSE,8.1,-,N/A,,Mostly Cloudy,160,2013-02-05 18:00:00
4:30 AM,77.0,71.6,83,29.86,6.2,South,6.9,-,N/A,Rain,Light Rain Showers,170,2013-02-05 18:30:00
5:00 AM,77.0,69.8,78,29.86,6.2,South,12.7,-,N/A,,Scattered Clouds,180,2013-02-05 19:00:00
5:30 AM,77.0,71.6,83,29.86,6.2,South,8.1,-,N/A,,Scattered Clouds,170,2013-02-05 19:30:00
6:00 AM,76,72,86,29.88,12,SSE,12.7,,,Rain,Light Rain Showers,150,2013-02-05 20:00:00
6:00 AM,75.2,73.4,94,29.89,6.2,SSE,12.7,-,N/A,,Mostly Cloudy,150,2013-02-05 20:00:00
6:30 AM,75.2,69.8,83,29.89,6.2,South,10.4,-,N/A,,Scattered Clouds,170,2013-02-05 20:30:00
7:00 AM,77,71,76,29.90,,SSE,10.4,,,,,160,2013-02-05 21:00:00
7:00 AM,77.0,71.6,83,29.89,-9999.0,SSE,10.4,-,N/A,,Clear,160,2013-02-05 21:00:00
7:30 AM,78.8,71.6,78,29.89,6.2,South,10.4,-,N/A,,Scattered Clouds,170,2013-02-05 21:30:00
8:00 AM,80.6,71.6,74,29.89,6.2,South,8.1,-,N/A,,Partly Cloudy,170,2013-02-05 22:00:00
8:30 AM,82.4,73.4,74,29.89,6.2,SSE,10.4,-,N/A,,Partly Cloudy,160,2013-02-05 22:30:00
9:00 AM,84,73,62,29.91,19,SSE,11.5,,,,Partly Cloudy,160,2013-02-05 23:00:00
9:00 AM,84.2,73.4,70,29.92,6.2,SSE,11.5,-,N/A,,Partly Cloudy,160,2013-02-05 23:00:00
9:30 AM,84.2,71.6,66,29.92,6.2,South,11.5,-,N/A,,Partly Cloudy,170,2013-02-05 23:30:00
10:00 AM,86,70,50,29.92,,SSE,17.3,,,,,150,2013-02-06 00:00:00
10:00 AM,86.0,69.8,58,29.89,6.2,SSE,17.3,-,N/A,,Scattered Clouds,150,2013-02-06 00:00:00
10:30 AM,86.0,69.8,58,29.89,6.2,SSE,17.3,-,N/A,,Scattered Clouds,150,2013-02-06 00:30:00
11:00 AM,87.8,68.0,52,29.89,6.2,SE,16.1,-,N/A,,Scattered Clouds,130,2013-02-06 01:00:00
11:30 AM,89.6,68.0,49,29.89,6.2,ESE,17.3,-,N/A,,Scattered Clouds,120,2013-02-06 01:30:00
12:00 PM,89,68,40,29.88,19,SE,16.1,,,,Partly Cloudy,130,2013-02-06 02:00:00
12:00 PM,89.6,68.0,49,29.86,6.2,SE,16.1,-,N/A,,Partly Cloudy,130,2013-02-06 02:00:00
12:30 PM,89.6,69.8,52,29.86,6.2,SE,16.1,-,N/A,,Partly Cloudy,130,2013-02-06 02:30:00
1:00 PM,89,68,41,29.85,,SE,18.4,,,,,130,2013-02-06 03:00:00
1:00 PM,89.6,68.0,49,29.83,6.2,SE,18.4,-,N/A,,Partly Cloudy,130,2013-02-06 03:00:00
1:30 PM,89.6,64.4,43,29.83,6.2,SE,18.4,-,N/A,,Partly Cloudy,130,2013-02-06 03:30:00
2:00 PM,89.6,62.6,40,29.83,6.2,ESE,16.1,-,N/A,,Partly Cloudy,110,2013-02-06 04:00:00
2:30 PM,89.6,66.2,46,29.80,6.2,SE,17.3,-,N/A,,Partly Cloudy,130,2013-02-06 04:30:00
3:00 PM,89,65,36,29.81,,SE,18.4,,,,,130,2013-02-06 05:00:00
3:00 PM,89.6,66.2,46,29.80,6.2,SE,18.4,-,N/A,,Partly Cloudy,130,2013-02-06 05:00:00
3:30 PM,89.6,66.2,46,29.80,6.2,SE,17.3,-,N/A,,Partly Cloudy,130,2013-02-06 05:30:00
4:00 PM,89,63,32,29.81,,SE,18.4,,,,,130,2013-02-06 06:00:00
4:00 PM,89.6,62.6,40,29.80,6.2,SE,18.4,-,N/A,,Partly Cloudy,130,2013-02-06 06:00:00
4:30 PM,87.8,66.2,49,29.80,6.2,SE,18.4,-,N/A,,Partly Cloudy,130,2013-02-06 06:30:00
5:00 PM,87.8,62.6,43,29.80,6.2,SE,20.7,-,N/A,,Partly Cloudy,130,2013-02-06 07:00:00
5:30 PM,86.0,66.2,51,29.80,6.2,SE,20.7,-,N/A,,Partly Cloudy,130,2013-02-06 07:30:00
6:00 PM,85,67,46,29.81,,SE,18.4,,,,,130,2013-02-06 08:00:00
6:00 PM,84.2,68.0,58,29.80,6.2,SE,18.4,-,N/A,,Partly Cloudy,130,2013-02-06 08:00:00
6:30 PM,84.2,68.0,58,29.83,6.2,SE,15.0,-,N/A,,Partly Cloudy,130,2013-02-06 08:30:00
7:00 PM,83,69,55,29.84,,SE,13.8,,,,,140,2013-02-06 09:00:00
7:00 PM,82.4,69.8,66,29.83,6.2,SE,13.8,-,N/A,,Partly Cloudy,140,2013-02-06 09:00:00
7:30 PM,82.4,69.8,66,29.83,6.2,SE,11.5,-,N/A,,Partly Cloudy,140,2013-02-06 09:30:00
8:00 PM,82.4,69.8,66,29.83,6.2,SE,11.5,-,N/A,,Partly Cloudy,140,2013-02-06 10:00:00
8:30 PM,80.6,69.8,70,29.86,6.2,South,6.9,-,N/A,,Partly Cloudy,170,2013-02-06 10:30:00
9:00 PM,79,70,67,29.86,,South,6.9,,,,,170,2013-02-06 11:00:00
9:00 PM,78.8,69.8,74,29.86,6.2,South,6.9,-,N/A,,Partly Cloudy,170,2013-02-06 11:00:00
9:30 PM,78.8,69.8,74,29.86,6.2,SSE,6.9,-,N/A,,Partly Cloudy,160,2013-02-06 11:30:00
10:00 PM,79,70,67,29.88,,SSE,8.1,,,,,160,2013-02-06 12:00:00
10:00 PM,78.8,69.8,74,29.86,6.2,SSE,8.1,-,N/A,,Partly Cloudy,160,2013-02-06 12:00:00
10:30 PM,78.8,69.8,74,29.86,6.2,SSE,8.1,-,N/A,,Partly Cloudy,160,2013-02-06 12:30:00
11:00 PM,78.8,69.8,74,29.86,6.2,SSE,8.1,-,N/A,,Partly Cloudy,160,2013-02-06 13:00:00
11:30 PM,78.8,69.8,74,29.86,6.2,South,6.9,-,N/A,,Partly Cloudy,170,2013-02-06 13:30:00